TimeEST,TemperatureF,Dew PointF,Humidity,Sea Level PressureIn,VisibilityMPH,Wind Direction,Wind SpeedMPH,Gust SpeedMPH,PrecipitationIn,Events,Conditions,WindDirDegrees,DateUTC
12:15 AM,57.2,55.4,94,30.16,5.0,SSW,5.8,-,N/A,,Clear,210,2013-01-30 05:15:00
12:35 AM,59.0,57.2,94,30.14,5.0,South,6.9,-,N/A,,Clear,180,2013-01-30 05:35:00
12:55 AM,59.0,57.2,94,30.12,5.0,South,8.1,-,N/A,,Scattered Clouds,190,2013-01-30 05:55:00
1:35 AM,59.0,57.2,94,30.11,5.0,SSW,8.1,-,N/A,,Clear,200,2013-01-30 06:35:00
1:55 AM,60.8,57.2,88,30.11,6.0,SSW,8.1,-,N/A,,Clear,200,2013-01-30 06:55:00
2:15 AM,59.0,57.2,94,30.11,5.0,SSW,6.9,-,N/A,,Clear,200,2013-01-30 07:15:00
2:35 AM,59.0,57.2,94,30.10,4.0,SSW,6.9,-,N/A,,Clear,200,2013-01-30 07:35:00
2:55 AM,59.0,57.2,94,30.10,4.0,SSW,5.8,-,N/A,,Clear,200,2013-01-30 07:55:00
3:15 AM,60.8,59.0,94,30.09,5.0,SSW,6.9,-,N/A,,Clear,200,2013-01-30 08:15:00
3:35 AM,60.8,59.0,94,30.08,7.0,SSW,8.1,-,N/A,,Clear,200,2013-01-30 08:35:00
3:55 AM,60.8,57.2,88,30.08,10.0,SSW,8.1,-,N/A,,Clear,200,2013-01-30 08:55:00
4:15 AM,60.8,57.2,88,30.07,10.0,South,8.1,-,N/A,,Clear,190,2013-01-30 09:15:00
4:35 AM,60.8,57.2,88,30.07,10.0,SSW,8.1,-,N/A,,Clear,200,2013-01-30 09:35:00
4:55 AM,59.0,57.2,94,30.06,10.0,SSW,8.1,-,N/A,,Clear,200,2013-01-30 09:55:00
5:15 AM,60.8,57.2,88,30.06,10.0,South,9.2,-,N/A,,Clear,180,2013-01-30 10:15:00
5:35 AM,60.8,59.0,94,30.06,10.0,South,9.2,-,N/A,,Scattered Clouds,190,2013-01-30 10:35:00
5:55 AM,60.8,59.0,94,30.05,10.0,SSW,8.1,-,N/A,,Scattered Clouds,200,2013-01-30 10:55:00
6:15 AM,60.8,59.0,94,30.05,10.0,SSW,9.2,-,N/A,,Clear,200,2013-01-30 11:15:00
6:35 AM,60.8,59.0,94,30.06,10.0,SSW,8.1,-,N/A,,Clear,200,2013-01-30 11:35:00
6:55 AM,60.8,59.0,94,30.05,10.0,South,9.2,-,N/A,,Clear,190,2013-01-30 11:55:00
7:15 AM,60.8,59.0,94,30.05,10.0,South,10.4,-,N/A,,Clear,190,2013-01-30 12:15:00
7:35 AM,62.6,59.0,88,30.05,10.0,South,10.4,-,N/A,,Clear,190,2013-01-30 12:35:00
7:55 AM,62.6,60.8,94,30.03,10.0,South,11.5,-,N/A,,Clear,180,2013-01-30 12:55:00
8:15 AM,64.4,60.8,88,30.02,10.0,South,13.8,-,N/A,,Clear,180,2013-01-30 13:15:00
8:35 AM,64.4,60.8,88,30.02,10.0,South,13.8,20.7,N/A,,Clear,180,2013-01-30 13:35:00
8:55 AM,66.2,62.6,88,30.02,10.0,South,16.1,26.5,N/A,,Clear,190,2013-01-30 13:55:00
9:15 AM,68.0,62.6,83,30.03,10.0,South,16.1,21.9,N/A,,Clear,190,2013-01-30 14:15:00
9:35 AM,69.8,62.6,78,30.02,10.0,South,16.1,-,N/A,,Partly Cloudy,190,2013-01-30 14:35:00
9:55 AM,69.8,62.6,78,30.01,10.0,South,24.2,31.1,N/A,,Scattered Clouds,190,2013-01-30 14:55:00
10:15 AM,71.6,62.6,73,30.01,10.0,South,23.0,29.9,N/A,,Partly Cloudy,190,2013-01-30 15:15:00
10:35 AM,73.4,62.6,69,29.99,10.0,South,20.7,29.9,N/A,,Partly Cloudy,190,2013-01-30 15:35:00
10:55 AM,73.4,62.6,69,29.99,10.0,South,23.0,38.0,N/A,,Clear,180,2013-01-30 15:55:00
11:15 AM,73.4,62.6,69,29.98,10.0,South,25.3,32.2,N/A,,Clear,190,2013-01-30 16:15:00
11:35 AM,73.4,62.6,69,29.97,10.0,South,26.5,34.5,N/A,,Scattered Clouds,180,2013-01-30 16:35:00
11:55 AM,75.2,62.6,65,29.95,10.0,South,24.2,34.5,N/A,,Mostly Cloudy,190,2013-01-30 16:55:00
12:15 PM,73.4,62.6,69,29.94,10.0,South,24.2,31.1,N/A,,Mostly Cloudy,180,2013-01-30 17:15:00
12:35 PM,73.4,60.8,65,29.93,10.0,South,25.3,32.2,N/A,,Overcast,180,2013-01-30 17:35:00
12:55 PM,73.4,60.8,65,29.91,10.0,South,18.4,26.5,N/A,,Overcast,180,2013-01-30 17:55:00
1:15 PM,73.4,60.8,65,29.91,10.0,South,23.0,32.2,N/A,,Overcast,190,2013-01-30 18:15:00
1:35 PM,73.4,62.6,69,29.89,10.0,South,24.2,34.5,N/A,,Overcast,170,2013-01-30 18:35:00
1:55 PM,73.4,60.8,65,29.89,10.0,South,21.9,28.8,N/A,,Overcast,180,2013-01-30 18:55:00
2:15 PM,73.4,60.8,65,29.88,10.0,South,17.3,29.9,N/A,,Overcast,190,2013-01-30 19:15:00
2:35 PM,73.4,60.8,65,29.87,10.0,South,23.0,29.9,N/A,,Overcast,190,2013-01-30 19:35:00
2:55 PM,73.4,60.8,65,29.86,10.0,South,21.9,31.1,N/A,,Overcast,180,2013-01-30 19:55:00
3:15 PM,73.4,60.8,65,29.85,10.0,South,20.7,29.9,N/A,,Overcast,170,2013-01-30 20:15:00
3:35 PM,71.6,60.8,69,29.84,10.0,South,23.0,38.0,N/A,,Overcast,180,2013-01-30 20:35:00
3:55 PM,71.6,60.8,69,29.84,10.0,South,25.3,35.7,N/A,,Scattered Clouds,180,2013-01-30 20:55:00
4:15 PM,71.6,60.8,69,29.82,10.0,South,21.9,31.1,N/A,,Scattered Clouds,180,2013-01-30 21:15:00
4:35 PM,71.6,60.8,69,29.81,10.0,South,24.2,34.5,N/A,,Mostly Cloudy,180,2013-01-30 21:35:00
4:55 PM,71.6,60.8,69,29.80,10.0,South,24.2,36.8,N/A,,Overcast,180,2013-01-30 21:55:00
5:15 PM,69.8,60.8,73,29.80,10.0,South,20.7,28.8,N/A,,Mostly Cloudy,180,2013-01-30 22:15:00
5:35 PM,69.8,60.8,73,29.79,10.0,South,20.7,29.9,N/A,,Mostly Cloudy,180,2013-01-30 22:35:00
5:55 PM,69.8,60.8,73,29.79,10.0,South,20.7,31.1,N/A,,Overcast,180,2013-01-30 22:55:00
6:15 PM,69.8,62.6,78,29.77,10.0,South,20.7,28.8,N/A,,Overcast,170,2013-01-30 23:15:00
6:35 PM,68.0,62.6,83,29.76,10.0,South,23.0,32.2,N/A,,Mostly Cloudy,180,2013-01-30 23:35:00
6:55 PM,68.0,62.6,83,29.75,10.0,South,21.9,34.5,N/A,,Scattered Clouds,180,2013-01-30 23:55:00
7:15 PM,68.0,62.6,83,29.75,10.0,South,21.9,32.2,N/A,,Mostly Cloudy,180,2013-01-31 00:15:00
7:35 PM,68.0,62.6,83,29.73,10.0,South,24.2,33.4,N/A,,Overcast,180,2013-01-31 00:35:00
7:55 PM,68.0,62.6,83,29.72,10.0,South,23.0,36.8,N/A,,Overcast,170,2013-01-31 00:55:00
8:15 PM,68.0,62.6,83,29.73,10.0,South,26.5,36.8,N/A,,Mostly Cloudy,180,2013-01-31 01:15:00
8:35 PM,68.0,62.6,83,29.72,10.0,South,25.3,34.5,N/A,,Overcast,180,2013-01-31 01:35:00
8:55 PM,68.0,62.6,83,29.71,10.0,South,24.2,35.7,N/A,,Overcast,180,2013-01-31 01:55:00
9:15 PM,68.0,62.6,83,29.70,10.0,South,23.0,38.0,N/A,,Mostly Cloudy,170,2013-01-31 02:15:00
9:35 PM,68.0,62.6,83,29.70,10.0,South,28.8,35.7,N/A,,Mostly Cloudy,180,2013-01-31 02:35:00
9:55 PM,68.0,62.6,83,29.69,10.0,South,24.2,33.4,N/A,,Overcast,170,2013-01-31 02:55:00
10:15 PM,69.8,62.6,78,29.66,10.0,SSE,24.2,40.3,N/A,,Overcast,160,2013-01-31 03:15:00
10:35 PM,69.8,62.6,78,29.65,10.0,South,27.6,35.7,N/A,,Overcast,170,2013-01-31 03:35:00
10:55 PM,69.8,62.6,78,29.64,10.0,South,27.6,41.4,N/A,,Overcast,170,2013-01-31 03:55:00
11:15 PM,69.8,62.6,78,29.62,10.0,South,31.1,41.4,N/A,,Overcast,170,2013-01-31 04:15:00
11:35 PM,69.8,62.6,78,29.61,10.0,South,29.9,44.9,N/A,,Overcast,170,2013-01-31 04:35:00
11:55 PM,69.8,62.6,78,29.59,10.0,South,28.8,38.0,N/A,,Overcast,170,2013-01-31 04:55:00